PEGASUS DEB, 39312

Orbit data source: Space-Track

PEGASUS DEB, 39312 is space debris in LEO originally from a launch on Thu, 19 May 1994 UTC launched from the Air Force Western Test Range (AFWTR). Debris objects in space refer to the collection of defunct objects orbiting the Earth. Examples of debris include non-operational satellites, rocket bodies, and fragments generated from explosions, collisions, or faulty payload assembly.

Loading next visibility...
Identifier
39312, 1994-029AEX
Orbit
LEO
Country
Flag of USUS
Related business
Manufacturer
Unknown
Mission
Spacecraft
Bus & Motor
Unknown
Mass
Unknown
Launch date (UTC)
1994-05-19 (32 years ago)
Launch vehicle
Unknown
Launch site
Air Force Western Test Range (AFWTR)
Object type
Payload
Rocket body
Debris
Shape & HBR
Unknown shape, 0.1 m
Radar Cross Section
Small (<0.1 m²)

Expand to show TLE details & history
Last TLE update: 2 days ago

TLE from 2 days ago
0 PEGASUS DEB
1 39312U 94029AEX 26106.20784280  .00002814  00000-0  34887-3 0  9996
2 39312  81.9739  80.7438 0190684 290.5103  67.5728 14.70288608679994
Epoch: 2026-04-16T04:59Z
TLE epoch observation values (Epoch: 2026-04-16T04:59:17.617Z)
Latitude
-0.0001°
Longitude
161.56169°
Altitude
614.151 km
Speed
7.578 km/s
True Right ascension
05h 22m 58s
True Declination
0° 00' 00"
Sunlit
Object was in daylight at epoch
Visualization orbit readout
Latitude
Unknown
Longitude
Unknown
Altitude
Unknown
Speed
Unknown
Apparent Right ascension
Unknown
Apparent Declination
Unknown
Sunlit
N/A
Visualization observer readout
Local Sidereal Time
01:30:10
Azimuth
Unknown
Elevation
Unknown
Doppler factor
Unknown
Orbital elements
Apogee altitude
791.357 km
Perigee altitude
523.052 km
Semi-major axis
7,035.342 km
Eccentricity
0.01907
Inclination
81.9739°
RAAN
80.7438°
Arg. of periapsis
290.5103°
True anomaly
69.61071°
Mean anomaly
67.5728°
Eccentric anomaly
68.58994°
Mean motion
3.67803 °/min
Orbital period
97.88 mins
BSTAR
0.00034887
Loading maneuver chart data...
Computing Atmospheric mass density...

Documentation

Showing up to 5 results
|